Location: ??
(35.4032°N, 139.3073°E)
Time: 01:57:43
(UTC+00:00)

Meteor 1-27 Rocket - Pass Details

Date: 13 April 2024
Orbit: 829 x 909 km, 81.3° (Epoch: 25 May)

Event Time Altitude Azimuth Distance (km) Brightness Sun altitude
Exits shadow 18:25:16 36° 273° (W) 1,369 4.3 -21.1°
Maximum altitude 18:25:45 37° 284° (WNW) 1,354 4.4 -21.0°
Drops below altitude 10° 18:31:02 10° 350° (N) 2,525 6.4 -20.1°
Sets 18:33:39 0° 359° (N) 3,453 7.2 -19.6°
